| time (UTC) | temp C | wind direction | speed KPH | gust KPH | rain 1hr cm | rain 24hr cm | rain mn cm | humidity % | barometer mb |
| 20260509022043 | 7 | 328 | 0.0 | 0.0 | 0.00 | 0.00 | 0.00 | 89 | 1005.0 |
| 20260509021544 | 7 | 328 | 0.0 | 0.0 | 0.00 | 0.00 | 0.00 | 89 | 1005.1 |
| 20260509021047 | 7 | 328 | 0.0 | 0.0 | 0.00 | 0.00 | 0.00 | 89 | 1005.0 |
| 20260509020532 | 8 | 328 | 0.0 | 0.0 | 0.00 | 0.00 | 0.00 | 87 | 1004.9 |
| 20260509015425 | 8 | 328 | 0.0 | 0.0 | 0.00 | 0.00 | 0.00 | 85 | 1004.8 |
| 20260509014928 | 8 | 328 | 0.0 | 0.0 | 0.00 | 0.00 | 0.00 | 85 | 1004.7 |
| 20260509014434 | 9 | 328 | 0.0 | 0.0 | 0.00 | 0.00 | 0.00 | 84 | 1004.7 |
| 20260509013942 | 10 | 328 | 0.0 | 0.0 | 0.00 | 0.00 | 0.00 | 84 | 1004.7 |
| 20260509013448 | 10 | 328 | 0.0 | 0.0 | 0.00 | 0.00 | 0.00 | 84 | 1004.6 |
| 20260509012954 | 10 | 328 | 0.0 | 0.0 | 0.00 | 0.00 | 0.00 | 84 | 1004.7 |
| 20260509012445 | 10 | 328 | 0.0 | 0.0 | 0.00 | 0.00 | 0.00 | 84 | 1004.6 |
| 20260509011934 | 10 | 328 | 0.0 | 0.0 | 0.00 | 0.00 | 0.00 | 84 | 1004.4 |
| 20260509011433 | 10 | 328 | 0.0 | 0.0 | 0.00 | 0.00 | 0.00 | 83 | 1004.4 |
| 20260509010256 | 11 | 328 | 0.0 | 0.0 | 0.00 | 0.00 | 0.00 | 78 | 1004.3 |
| 20260509005739 | 11 | 328 | 0.0 | 0.0 | 0.00 | 0.00 | 0.00 | 79 | 1004.3 |
| 20260509005221 | 11 | 328 | 0.0 | 0.0 | 0.00 | 0.00 | 0.00 | 77 | 1004.3 |
| 20260509004702 | 11 | 328 | 0.0 | 0.0 | 0.00 | 0.00 | 0.00 | 71 | 1004.2 |
| 20260509004155 | 12 | 328 | 0.0 | 0.0 | 0.00 | 0.00 | 0.00 | 69 | 1004.2 |
| 20260509003636 | 12 | 328 | 0.0 | 0.0 | 0.00 | 0.00 | 0.00 | 67 | 1004.2 |
| 20260509003133 | 13 | 328 | 0.0 | 0.0 | 0.00 | 0.00 | 0.00 | 67 | 1004.2 |
| 20260509002638 | 13 | 328 | 0.0 | 0.0 | 0.00 | 0.00 | 0.00 | 66 | 1004.1 |
| 20260509002126 | 13 | 328 | 0.0 | 0.0 | 0.00 | 0.00 | 0.00 | 65 | 1004.1 |
| 20260509001607 | 13 | 328 | 0.0 | 0.0 | 0.00 | 0.00 | 0.00 | 64 | 1004.2 |
| 20260509000440 | 15 | 316 | 0.0 | 1.6 | 0.00 | 0.00 | 0.00 | 61 | 1004.1 |
| 20260508235935 | 15 | 319 | 0.0 | 0.0 | 0.00 | 0.00 | 0.00 | 61 | 1004.1 |
| 20260508234133 | 15 | 325 | 0.0 | 3.2 | 0.00 | 0.00 | 0.00 | 58 | 1004.2 |
| 20260508233616 | 15 | 314 | 0.0 | 0.0 | 0.00 | 0.00 | 0.00 | 58 | 1004.2 |
| 20260508233122 | 15 | 325 | 0.0 | 4.8 | 0.00 | 0.00 | 0.00 | 58 | 1004.1 |
| 20260508232618 | 15 | 317 | 0.0 | 3.2 | 0.00 | 0.00 | 0.00 | 58 | 1004.1 |
| 20260508231429 | 15 | 328 | 0.0 | 0.0 | 0.00 | 0.00 | 0.00 | 59 | 1004.3 |
| 20260508230925 | 15 | 328 | 0.0 | 0.0 | 0.00 | 0.00 | 0.00 | 60 | 1004.3 |
| 20260508230409 | 15 | 328 | 0.0 | 4.8 | 0.00 | 0.00 | 0.00 | 58 | 1004.2 |
| 20260508225851 | 15 | 324 | 0.0 | 3.2 | 0.00 | 0.00 | 0.00 | 58 | 1004.3 |
| 20260508225354 | 15 | 319 | 0.0 | 0.0 | 0.00 | 0.00 | 0.00 | 57 | 1004.3 |
| 20260508224902 | 15 | 319 | 0.0 | 1.6 | 0.00 | 0.00 | 0.00 | 57 | 1004.3 |
| 20260508224402 | 15 | 253 | 0.0 | 1.6 | 0.00 | 0.00 | 0.00 | 58 | 1004.3 |
| 20260508223901 | 15 | 62 | 0.0 | 0.0 | 0.00 | 0.00 | 0.00 | 58 | 1004.3 |
| 20260508223406 | 15 | 62 | 0.0 | 6.4 | 0.00 | 0.00 | 0.00 | 57 | 1004.4 |
| 20260508222856 | 15 | 62 | 0.0 | 3.2 | 0.00 | 0.00 | 0.00 | 57 | 1004.5 |
| 20260508221745 | 16 | 60 | 0.0 | 6.4 | 0.00 | 0.00 | 0.00 | 58 | 1004.5 |
| 20260508221240 | 16 | 61 | 0.0 | 6.4 | 0.00 | 0.00 | 0.00 | 55 | 1004.6 |
| 20260508220743 | 16 | 60 | 0.0 | 4.8 | 0.00 | 0.00 | 0.00 | 56 | 1004.7 |
| 20260508220233 | 16 | 61 | 0.0 | 6.4 | 0.00 | 0.00 | 0.00 | 54 | 1004.7 |
| 20260508215723 | 15 | 61 | 0.0 | 6.4 | 0.00 | 0.00 | 0.00 | 58 | 1004.8 |
| 20260508215223 | 15 | 324 | 0.0 | 3.2 | 0.00 | 0.00 | 0.00 | 57 | 1004.8 |
| 20260508214727 | 15 | 328 | 0.0 | 8.0 | 0.00 | 0.00 | 0.00 | 57 | 1004.9 |
| 20260508214233 | 15 | 328 | 0.0 | 6.4 | 0.00 | 0.00 | 0.00 | 57 | 1004.9 |
| 20260508213730 | 15 | 318 | 0.0 | 1.6 | 0.00 | 0.00 | 0.00 | 59 | 1004.9 |
| 20260508213227 | 15 | 319 | 0.0 | 11.3 | 0.00 | 0.00 | 0.00 | 57 | 1005.0 |
| 20260508212730 | 15 | 328 | 0.0 | 8.0 | 0.00 | 0.00 | 0.00 | 55 | 1005.0 |
| 20260508212232 | 15 | 319 | 0.0 | 6.4 | 0.00 | 0.00 | 0.00 | 58 | 1004.9 |
| 20260508211717 | 15 | 329 | 0.0 | 16.1 | 0.00 | 0.00 | 0.00 | 59 | 1004.9 |
| 20260508211216 | 15 | 328 | 0.0 | 16.1 | 0.00 | 0.00 | 0.00 | 56 | 1004.9 |
| 20260508210104 | 16 | 328 | 1.6 | 16.1 | 0.00 | 0.00 | 0.00 | 53 | 1005.1 |
| 20260508205558 | 16 | 329 | 1.6 | 11.3 | 0.00 | 0.00 | 0.00 | 53 | 1005.0 |
| 20260508205056 | 16 | 329 | 1.6 | 11.3 | 0.00 | 0.00 | 0.00 | 53 | 1005.1 |
| 20260508204556 | 16 | 319 | 1.6 | 11.3 | 0.00 | 0.00 | 0.00 | 47 | 1005.3 |
| 20260508204037 | 17 | 82 | 1.6 | 11.3 | 0.00 | 0.00 | 0.00 | 44 | 1005.3 |
| 20260508203531 | 17 | 78 | 1.6 | 9.7 | 0.00 | 0.00 | 0.00 | 43 | 1005.4 |
| 20260508203037 | 17 | 60 | 1.6 | 9.7 | 0.00 | 0.00 | 0.00 | 43 | 1005.4 |
| 20260508202520 | 17 | 69 | 1.6 | 9.7 | 0.00 | 0.00 | 0.00 | 34 | 1005.5 |
| 20260508202026 | 17 | 60 | 0.0 | 11.3 | 0.00 | 0.00 | 0.00 | 32 | 1005.6 |
| 20260508201511 | 17 | 127 | 0.0 | 11.3 | 0.00 | 0.00 | 0.00 | 35 | 1005.6 |
| 20260508201011 | 17 | 95 | 1.6 | 9.7 | 0.00 | 0.00 | 0.00 | 34 | 1005.6 |
| 20260508200455 | 16 | 61 | 1.6 | 9.7 | 0.00 | 0.00 | 0.00 | 37 | 1005.8 |
| 20260508195947 | 16 | 328 | 0.0 | 6.4 | 0.00 | 0.00 | 0.00 | 35 | 1005.9 |
| 20260508195441 | 16 | 241 | 0.0 | 6.4 | 0.00 | 0.00 | 0.00 | 34 | 1006.0 |
| 20260508194940 | 16 | 257 | 1.6 | 9.7 | 0.00 | 0.00 | 0.00 | 35 | 1006.1 |
| 20260508193812 | 16 | 61 | 1.6 | 11.3 | 0.00 | 0.00 | 0.00 | 36 | 1006.4 |
| 20260508192055 | 16 | 328 | 1.6 | 8.0 | 0.00 | 0.00 | 0.00 | 37 | 1006.4 |
| 20260508191556 | 16 | 61 | 1.6 | 8.0 | 0.00 | 0.00 | 0.00 | 34 | 1006.5 |
| 20260508191104 | 16 | 329 | 1.6 | 12.9 | 0.00 | 0.00 | 0.00 | 37 | 1006.5 |
| 20260508190603 | 16 | 329 | 1.6 | 12.9 | 0.00 | 0.00 | 0.00 | 36 | 1006.7 |
| 20260508190057 | 16 | 329 | 1.6 | 12.9 | 0.00 | 0.00 | 0.00 | 36 | 1006.8 |
| 20260508185555 | 16 | 130 | 1.6 | 12.9 | 0.00 | 0.00 | 0.00 | 34 | 1006.7 |
| 20260508185049 | 16 | 61 | 0.0 | 0.0 | 0.00 | 0.00 | 0.00 | 36 | 1006.9 |
| 20260508184541 | 16 | 142 | 0.0 | 9.7 | 0.00 | 0.00 | 0.00 | 34 | 1006.9 |
| 20260508184028 | 16 | 328 | 0.0 | 9.7 | 0.00 | 0.00 | 0.00 | 34 | 1007.0 |
| 20260508182903 | 16 | 328 | 0.0 | 9.7 | 0.00 | 0.00 | 0.00 | 36 | 1007.1 |
| 20260508182359 | 16 | 100 | 1.6 | 9.7 | 0.00 | 0.00 | 0.00 | 35 | 1007.1 |
| 20260508175333 | 15 | 169 | 3.2 | 16.1 | 0.00 | 0.00 | 0.00 | 37 | 1007.6 |
| 20260508174836 | 15 | 63 | 1.6 | 16.1 | 0.00 | 0.00 | 0.00 | 34 | 1007.8 |
| 20260508174338 | 15 | 328 | 0.0 | 4.8 | 0.00 | 0.00 | 0.00 | 42 | 1007.8 |
| 20260508173843 | 15 | 328 | 1.6 | 11.3 | 0.00 | 0.00 | 0.00 | 37 | 1007.8 |
| 20260508172705 | 15 | 183 | 3.2 | 11.3 | 0.00 | 0.00 | 0.00 | 37 | 1008.1 |
| 20260508172210 | 15 | 62 | 3.2 | 11.3 | 0.00 | 0.00 | 0.00 | 38 | 1008.1 |
| 20260508171655 | 15 | 63 | 1.6 | 12.9 | 0.00 | 0.00 | 0.00 | 36 | 1008.2 |
| 20260508170541 | 15 | 75 | 1.6 | 12.9 | 0.00 | 0.00 | 0.00 | 38 | 1008.3 |
| 20260508170048 | 15 | 152 | 1.6 | 12.9 | 0.00 | 0.00 | 0.00 | 38 | 1008.3 |
| 20260508165540 | 15 | 62 | 0.0 | 8.0 | 0.00 | 0.00 | 0.00 | 34 | 1008.4 |
| 20260508165032 | 15 | 103 | 0.0 | 0.0 | 0.00 | 0.00 | 0.00 | 37 | 1008.4 |
| 20260508164514 | 15 | 62 | 1.6 | 9.7 | 0.00 | 0.00 | 0.00 | 36 | 1008.6 |
| 20260508163340 | 15 | 67 | 1.6 | 8.0 | 0.00 | 0.00 | 0.00 | 37 | 1008.9 |
| 20260508162837 | 14 | 62 | 0.0 | 9.7 | 0.00 | 0.00 | 0.00 | 36 | 1008.8 |
| 20260508162333 | 15 | 62 | 0.0 | 9.7 | 0.00 | 0.00 | 0.00 | 35 | 1008.9 |
| 20260508161826 | 14 | 62 | 0.0 | 9.7 | 0.00 | 0.00 | 0.00 | 37 | 1008.8 |
| 20260508161320 | 14 | 286 | 1.6 | 9.7 | 0.00 | 0.00 | 0.00 | 36 | 1008.9 |
| 20260508160805 | 14 | 62 | 0.0 | 8.0 | 0.00 | 0.00 | 0.00 | 37 | 1009.0 |
| 20260508160300 | 15 | 62 | 0.0 | 8.0 | 0.00 | 0.00 | 0.00 | 37 | 1009.0 |
| 20260508155758 | 15 | 138 | 0.0 | 8.0 | 0.00 | 0.00 | 0.00 | 41 | 1008.9 |
| 20260508155239 | 14 | 326 | 0.0 | 4.8 | 0.00 | 0.00 | 0.00 | 41 | 1009.0 |
| 20260508153515 | 13 | 76 | 0.0 | 0.0 | 0.00 | 0.00 | 0.00 | 41 | 1009.0 |
| 20260508153016 | 13 | 62 | 0.0 | 3.2 | 0.00 | 0.00 | 0.00 | 43 | 1009.1 |
| 20260508152501 | 13 | 61 | 0.0 | 3.2 | 0.00 | 0.00 | 0.00 | 42 | 1009.2 |
| 20260508151946 | 13 | 175 | 0.0 | 6.4 | 0.00 | 0.00 | 0.00 | 46 | 1009.2 |
| 20260508150824 | 13 | 151 | 0.0 | 8.0 | 0.00 | 0.00 | 0.00 | 45 | 1009.4 |
| 20260508145700 | 13 | 68 | 0.0 | 6.4 | 0.00 | 0.00 | 0.00 | 46 | 1009.4 |
| 20260508144521 | 13 | 176 | 0.0 | 0.0 | 0.00 | 0.00 | 0.00 | 51 | 1009.5 |
| 20260508144023 | 12 | 226 | 0.0 | 3.2 | 0.00 | 0.00 | 0.00 | 48 | 1009.5 |
| 20260508143506 | 12 | 168 | 0.0 | 4.8 | 0.00 | 0.00 | 0.00 | 49 | 1009.5 |
| 20260508142952 | 12 | 288 | 0.0 | 0.0 | 0.00 | 0.00 | 0.00 | 50 | 1009.6 |
| 20260508142440 | 12 | 62 | 0.0 | 4.8 | 0.00 | 0.00 | 0.00 | 51 | 1009.7 |
| 20260508141944 | 12 | 150 | 0.0 | 3.2 | 0.00 | 0.00 | 0.00 | 54 | 1009.7 |
| 20260508141449 | 12 | 126 | 0.0 | 8.0 | 0.00 | 0.00 | 0.00 | 52 | 1009.7 |
| 20260508140951 | 11 | 150 | 0.0 | 1.6 | 0.00 | 0.00 | 0.00 | 51 | 1009.8 |
| 20260508135828 | 11 | 149 | 0.0 | 6.4 | 0.00 | 0.00 | 0.00 | 52 | 1009.8 |
| 20260508135329 | 11 | 126 | 0.0 | 6.4 | 0.00 | 0.00 | 0.00 | 53 | 1009.8 |
| 20260508134149 | 11 | 218 | 0.0 | 1.6 | 0.00 | 0.00 | 0.00 | 58 | 1009.9 |
| 20260508133643 | 11 | 61 | 0.0 | 4.8 | 0.00 | 0.00 | 0.00 | 56 | 1009.9 |
| 20260508133127 | 10 | 165 | 0.0 | 3.2 | 0.00 | 0.00 | 0.00 | 58 | 1009.8 |
| 20260508132002 | 10 | 61 | 0.0 | 3.2 | 0.00 | 0.00 | 0.00 | 60 | 1009.9 |
| 20260508131502 | 10 | 219 | 0.0 | 1.6 | 0.00 | 0.00 | 0.00 | 61 | 1009.9 |
| 20260508131012 | 9 | 136 | 0.0 | 1.6 | 0.00 | 0.00 | 0.00 | 66 | 1009.8 |
| 20260508130508 | 9 | 171 | 0.0 | 1.6 | 0.00 | 0.00 | 0.00 | 69 | 1009.9 |
| 20260508125950 | 8 | 269 | 0.0 | 0.0 | 0.00 | 0.00 | 0.00 | 71 | 1009.9 |
| 20260508125451 | 8 | 328 | 0.0 | 0.0 | 0.00 | 0.00 | 0.00 | 75 | 1009.9 |
| 20260508124957 | 7 | 328 | 0.0 | 1.6 | 0.00 | 0.00 | 0.00 | 76 | 1009.9 |
| 20260508124454 | 7 | 329 | 0.0 | 0.0 | 0.00 | 0.00 | 0.00 | 79 | 1009.9 |
| 20260508123942 | 7 | 311 | 0.0 | 1.6 | 0.00 | 0.00 | 0.00 | 81 | 1009.8 |
| 20260508123452 | 6 | 328 | 0.0 | 0.0 | 0.00 | 0.00 | 0.00 | 83 | 1009.9 |
| 20260508122936 | 6 | 309 | 0.0 | 1.6 | 0.00 | 0.00 | 0.00 | 85 | 1009.9 |
| 20260508122440 | 6 | 328 | 0.0 | 0.0 | 0.00 | 0.00 | 0.00 | 86 | 1009.8 |
| 20260508121923 | 5 | 328 | 0.0 | 0.0 | 0.00 | 0.00 | 0.00 | 88 | 1009.7 |
| 20260508121418 | 5 | 328 | 0.0 | 0.0 | 0.00 | 0.00 | 0.00 | 89 | 1009.6 |
| 20260508115611 | 3 | 323 | 0.0 | 1.6 | 0.00 | 0.00 | 0.00 | 97 | 1009.4 |
| 20260508115105 | 2 | 172 | 0.0 | 0.0 | 0.00 | 0.00 | 0.00 | 97 | 1009.4 |
| 20260508114550 | 2 | 172 | 0.0 | 0.0 | 0.00 | 0.00 | 0.00 | 97 | 1009.3 |
| 20260508114045 | 2 | 172 | 0.0 | 0.0 | 0.00 | 0.00 | 0.00 | 97 | 1009.3 |
| 20260508113538 | 2 | 172 | 0.0 | 0.0 | 0.00 | 0.00 | 0.00 | 97 | 1009.3 |
| 20260508113021 | 1 | 172 | 0.0 | 0.0 | 0.00 | 0.00 | 0.00 | 96 | 1009.2 |
| 20260508112514 | 1 | 172 | 0.0 | 0.0 | 0.00 | 0.00 | 0.00 | 96 | 1009.2 |
| 20260508112004 | 1 | 172 | 0.0 | 0.0 | 0.00 | 0.00 | 0.00 | 96 | 1009.2 |
| 20260508111500 | 0 | 172 | 0.0 | 0.0 | 0.00 | 0.00 | 0.00 | 95 | 1009.2 |
| 20260508105706 | 0 | 172 | 0.0 | 0.0 | 0.00 | 0.00 | 0.00 | 94 | 1009.1 |
| 20260508105152 | 0 | 172 | 0.0 | 0.0 | 0.00 | 0.00 | 0.00 | 94 | 1009.1 |
| 20260508104644 | 0 | 172 | 0.0 | 0.0 | 0.00 | 0.00 | 0.00 | 94 | 1009.1 |
| 20260508104139 | 0 | 172 | 0.0 | 0.0 | 0.00 | 0.00 | 0.00 | 94 | 1009.0 |
| 20260508103642 | 0 | 172 | 0.0 | 0.0 | 0.00 | 0.00 | 0.00 | 94 | 1009.1 |
| 20260508103129 | 0 | 172 | 0.0 | 0.0 | 0.00 | 0.00 | 0.00 | 94 | 1009.1 |
| 20260508102638 | 0 | 172 | 0.0 | 0.0 | 0.00 | 0.00 | 0.00 | 94 | 1009.2 |
| 20260508102132 | 0 | 172 | 0.0 | 0.0 | 0.00 | 0.00 | 0.00 | 94 | 1009.1 |
| 20260508101026 | 0 | 172 | 0.0 | 0.0 | 0.00 | 0.00 | 0.00 | 93 | 1009.1 |
| 20260508100518 | 0 | 172 | 0.0 | 0.0 | 0.00 | 0.00 | 0.00 | 93 | 1009.1 |
| 20260508095402 | 0 | 172 | 0.0 | 0.0 | 0.00 | 0.00 | 0.00 | 93 | 1009.1 |
| 20260508094900 | 0 | 172 | 0.0 | 0.0 | 0.00 | 0.00 | 0.00 | 93 | 1009.1 |
| 20260508094349 | 0 | 172 | 0.0 | 0.0 | 0.00 | 0.00 | 0.00 | 93 | 1009.2 |
| 20260508093845 | 0 | 172 | 0.0 | 0.0 | 0.00 | 0.00 | 0.00 | 92 | 1009.2 |
| 20260508093355 | 0 | 172 | 0.0 | 0.0 | 0.00 | 0.00 | 0.00 | 92 | 1009.2 |
| 20260508092850 | 0 | 172 | 0.0 | 0.0 | 0.00 | 0.00 | 0.00 | 92 | 1009.2 |
| 20260508092354 | 0 | 172 | 0.0 | 0.0 | 0.00 | 0.00 | 0.00 | 92 | 1009.2 |
| 20260508090623 | 1 | 172 | 0.0 | 0.0 | 0.00 | 0.00 | 0.00 | 91 | 1009.4 |
| 20260508090115 | 1 | 172 | 0.0 | 0.0 | 0.00 | 0.00 | 0.00 | 91 | 1009.4 |
| 20260508085622 | 1 | 172 | 0.0 | 0.0 | 0.00 | 0.00 | 0.00 | 91 | 1009.4 |
| 20260508085129 | 1 | 172 | 0.0 | 0.0 | 0.00 | 0.00 | 0.00 | 91 | 1009.4 |
| 20260508084622 | 2 | 172 | 0.0 | 0.0 | 0.00 | 0.00 | 0.00 | 91 | 1009.4 |
| 20260508084125 | 2 | 172 | 0.0 | 0.0 | 0.00 | 0.00 | 0.00 | 91 | 1009.4 |
| 20260508083622 | 2 | 172 | 0.0 | 0.0 | 0.00 | 0.00 | 0.00 | 91 | 1009.3 |
| 20260508083118 | 2 | 172 | 0.0 | 0.0 | 0.00 | 0.00 | 0.00 | 91 | 1009.2 |
| 20260508082602 | 2 | 172 | 0.0 | 0.0 | 0.00 | 0.00 | 0.00 | 92 | 1009.1 |
| 20260508082102 | 3 | 172 | 0.0 | 0.0 | 0.00 | 0.00 | 0.00 | 92 | 1009.2 |
| 20260508081553 | 2 | 172 | 0.0 | 0.0 | 0.00 | 0.00 | 0.00 | 91 | 1009.4 |
| 20260508080424 | 3 | 172 | 0.0 | 0.0 | 0.00 | 0.00 | 0.00 | 90 | 1009.5 |
| 20260508075919 | 3 | 172 | 0.0 | 0.0 | 0.00 | 0.00 | 0.00 | 90 | 1009.4 |
| 20260508074158 | 3 | 153 | 0.0 | 0.0 | 0.00 | 0.00 | 0.00 | 90 | 1009.1 |
| 20260508073640 | 3 | 156 | 0.0 | 0.0 | 0.00 | 0.00 | 0.00 | 90 | 1009.0 |
| 20260508073120 | 3 | 156 | 0.0 | 0.0 | 0.00 | 0.00 | 0.00 | 90 | 1009.0 |
| 20260508072621 | 3 | 156 | 0.0 | 0.0 | 0.00 | 0.00 | 0.00 | 90 | 1009.1 |
| 20260508072110 | 3 | 156 | 0.0 | 0.0 | 0.00 | 0.00 | 0.00 | 88 | 1009.3 |
| 20260508070940 | 3 | 156 | 0.0 | 0.0 | 0.00 | 0.00 | 0.00 | 89 | 1009.1 |
| 20260508070436 | 3 | 156 | 0.0 | 0.0 | 0.00 | 0.00 | 0.00 | 89 | 1009.1 |
| 20260508065918 | 3 | 156 | 0.0 | 0.0 | 0.00 | 0.00 | 0.00 | 89 | 1009.6 |
| 20260508065401 | 3 | 156 | 0.0 | 0.0 | 0.00 | 0.00 | 0.00 | 88 | 1009.6 |
| 20260508064846 | 3 | 156 | 0.0 | 0.0 | 0.00 | 0.00 | 0.00 | 88 | 1009.4 |
| 20260508064354 | 4 | 156 | 0.0 | 0.0 | 0.00 | 0.00 | 0.00 | 87 | 1009.5 |
| 20260508063842 | 4 | 156 | 0.0 | 0.0 | 0.00 | 0.00 | 0.00 | 87 | 1009.4 |
| 20260508063338 | 4 | 156 | 0.0 | 0.0 | 0.00 | 0.00 | 0.00 | 86 | 1009.5 |
| 20260508062824 | 4 | 156 | 0.0 | 0.0 | 0.00 | 0.00 | 0.00 | 85 | 1009.5 |
| 20260508061653 | 5 | 156 | 1.6 | 4.8 | 0.00 | 0.00 | 0.00 | 82 | 1009.9 |
| 20260508061150 | 5 | 168 | 0.0 | 4.8 | 0.00 | 0.00 | 0.00 | 82 | 1009.3 |
| 20260508060647 | 5 | 62 | 0.0 | 3.2 | 0.00 | 0.00 | 0.00 | 82 | 1009.9 |
| 20260508060143 | 5 | 158 | 0.0 | 0.0 | 0.00 | 0.00 | 0.00 | 83 | 1010.0 |
| 20260508055645 | 5 | 158 | 0.0 | 0.0 | 0.00 | 0.00 | 0.00 | 81 | 1009.7 |
| 20260508055126 | 5 | 158 | 0.0 | 0.0 | 0.00 | 0.00 | 0.00 | 80 | 1009.5 |
| 20260508054609 | 5 | 158 | 0.0 | 0.0 | 0.00 | 0.00 | 0.00 | 80 | 1009.6 |
| 20260508053457 | 5 | 158 | 0.0 | 0.0 | 0.00 | 0.00 | 0.00 | 79 | 1009.8 |
| 20260508051654 | 5 | 158 | 0.0 | 0.0 | 0.00 | 0.00 | 0.00 | 79 | 1009.9 |
| 20260508051135 | 5 | 158 | 0.0 | 0.0 | 0.00 | 0.00 | 0.00 | 80 | 1009.8 |
| 20260508050634 | 5 | 158 | 0.0 | 0.0 | 0.00 | 0.00 | 0.00 | 81 | 1009.9 |
| 20260508050117 | 5 | 158 | 0.0 | 0.0 | 0.00 | 0.00 | 0.00 | 83 | 1010.0 |
| 20260508045613 | 4 | 158 | 0.0 | 0.0 | 0.00 | 0.00 | 0.00 | 84 | 1010.0 |
| 20260508044450 | 3 | 158 | 0.0 | 0.0 | 0.00 | 0.00 | 0.00 | 85 | 1010.1 |
| 20260508043932 | 3 | 158 | 0.0 | 0.0 | 0.00 | 0.00 | 0.00 | 83 | 1010.1 |
| 20260508043435 | 3 | 158 | 0.0 | 0.0 | 0.00 | 0.00 | 0.00 | 83 | 1009.9 |
| 20260508042941 | 4 | 158 | 0.0 | 0.0 | 0.00 | 0.00 | 0.00 | 83 | 1009.8 |
| 20260508041809 | 4 | 158 | 0.0 | 0.0 | 0.00 | 0.00 | 0.00 | 84 | 1009.6 |
| 20260508041303 | 4 | 158 | 0.0 | 0.0 | 0.00 | 0.00 | 0.00 | 84 | 1009.5 |
| 20260508040745 | 4 | 158 | 0.0 | 0.0 | 0.00 | 0.00 | 0.00 | 85 | 1009.6 |
| 20260508040230 | 4 | 158 | 0.0 | 0.0 | 0.00 | 0.00 | 0.00 | 84 | 1009.5 |
| 20260508035718 | 4 | 158 | 0.0 | 0.0 | 0.00 | 0.00 | 0.00 | 84 | 1009.5 |
| 20260508035212 | 3 | 158 | 0.0 | 0.0 | 0.00 | 0.00 | 0.00 | 83 | 1009.5 |
| 20260508034656 | 4 | 158 | 0.0 | 0.0 | 0.00 | 0.00 | 0.00 | 82 | 1009.4 |
| 20260508034154 | 4 | 158 | 0.0 | 0.0 | 0.00 | 0.00 | 0.00 | 82 | 1009.2 |
| 20260508033658 | 4 | 158 | 0.0 | 0.0 | 0.00 | 0.00 | 0.00 | 81 | 1009.3 |
| 20260508033203 | 4 | 158 | 0.0 | 0.0 | 0.00 | 0.00 | 0.00 | 81 | 1009.4 |
| 20260508032657 | 4 | 158 | 0.0 | 0.0 | 0.00 | 0.00 | 0.00 | 82 | 1009.5 |
| 20260508032207 | 4 | 158 | 0.0 | 0.0 | 0.00 | 0.00 | 0.00 | 81 | 1009.4 |
| 20260508031711 | 4 | 158 | 0.0 | 0.0 | 0.00 | 0.00 | 0.00 | 81 | 1009.6 |
| 20260508031218 | 4 | 158 | 0.0 | 0.0 | 0.00 | 0.00 | 0.00 | 79 | 1009.7 |
| 20260508030726 | 4 | 158 | 0.0 | 0.0 | 0.00 | 0.00 | 0.00 | 78 | 1009.8 |
| 20260508030228 | 4 | 158 | 0.0 | 0.0 | 0.00 | 0.00 | 0.00 | 76 | 1009.7 |
| 20260508025059 | 5 | 158 | 0.0 | 0.0 | 0.00 | 0.00 | 0.00 | 73 | 1009.7 |
| 20260508024552 | 5 | 158 | 0.0 | 0.0 | 0.00 | 0.00 | 0.00 | 71 | 1009.7 |
| 20260508024034 | 6 | 158 | 0.0 | 0.0 | 0.00 | 0.00 | 0.00 | 70 | 1009.6 |
| 20260508023533 | 6 | 158 | 0.0 | 0.0 | 0.00 | 0.00 | 0.00 | 69 | 1009.6 |
| 20260508023035 | 6 | 158 | 0.0 | 0.0 | 0.00 | 0.00 | 0.00 | 67 | 1009.7 |
| 20260508022538 | 6 | 158 | 0.0 | 0.0 | 0.00 | 0.00 | 0.00 | 65 | 1009.7 |